Decatur, TX

5:58 PM CDT on April 23, 2017 (GMT -0500)
Decatur

Weather History for KLUD - February, 2013

Change the Weather History Date:

Sunday, February 17, 2013

  Actual Average (KDTO) Record (KDTO)
Temperature  
Mean Temperature 55 °F -  
Max Temperature 69 °F 58 °F 79 °F (2011)
Min Temperature 41 °F 37 °F 24 °F (2003)
Degree Days  
Heating Degree Days 10    
Growing Degree Days 5 (Base 50)    
Moisture  
Dew Point 29 °F    
Average Humidity 40    
Maximum Humidity 65    
Minimum Humidity 16    
Precipitation  
Precipitation 0.00 in - - ()
Sea Level Pressure  
Sea Level Pressure 29.98 in    
Wind  
Wind Speed 12 mph (South)    
Max Wind Speed 22 mph    
Max Gust Speed 31 mph    
Visibility 10 miles    
Events      
Averages and records for this station are not official NWS values.
T = Trace of Precipitation, MM = Missing Value Source: NWS Daily Summary

Daily Weather History Graph

Daily Weather History Graph

Search for Another Location

Airport or City:

Trip Planner

Search our weather history database for the weather conditions in past years. The results will help you decide how hot, cold, wet, or windy it might be!

Date:

Astronomy

Feb. 17, 2013 Rise Set
Actual Time 7:11 AM CST 6:17 PM CST
Civil Twilight 6:46 AM CST 6:42 PM CST
Nautical Twilight 6:17 AM CST 7:11 PM CST
Astronomical Twilight 5:48 AM CST 7:40 PM CST
Moon 11:29 AM CST (2/17) 12:50 AM CST (2/17)
Length of Visible Light 11h 56m
Length of Day
11h 05m
Waxing Crescent, 49% of the Moon is Illuminated
Feb 17
Waxing Crescent
Feb 17
First Quarter
Feb 25
Full
Mar 4
Last Quarter
Mar 11
New

Hourly Weather History & Observations

Time (CST) Temp. Windchill Dew Point Humidity Pressure Visibility Wind Dir Wind Speed Gust Speed Precip Events Conditions
12:15 AM 41.0 °F 35.8 °F 28.4 °F 61% 30.13 in 10.0 mi SE 8.1 mph - N/A   Clear
12:35 AM 41.0 °F 35.2 °F 28.4 °F 61% 30.13 in 10.0 mi SE 9.2 mph - N/A   Clear
12:55 AM 41.0 °F 35.2 °F 28.4 °F 61% 30.12 in 10.0 mi SSE 9.2 mph - N/A   Clear
1:15 AM 42.8 °F 37.5 °F 28.4 °F 57% 30.12 in 10.0 mi SSE 9.2 mph - N/A   Clear
1:35 AM 41.0 °F 36.4 °F 30.2 °F 65% 30.12 in 10.0 mi SE 6.9 mph - N/A   Clear
1:55 AM 41.0 °F 35.2 °F 30.2 °F 65% 30.11 in 10.0 mi SSE 9.2 mph - N/A   Clear
2:15 AM 41.0 °F 35.2 °F 30.2 °F 65% 30.10 in 10.0 mi SSE 9.2 mph - N/A   Clear
2:35 AM 42.8 °F 37.5 °F 30.2 °F 61% 30.10 in 10.0 mi SSE 9.2 mph - N/A   Clear
2:55 AM 42.8 °F 37.5 °F 30.2 °F 61% 30.09 in 10.0 mi South 9.2 mph - N/A   Clear
3:15 AM 42.8 °F 37.0 °F 30.2 °F 61% 30.08 in 10.0 mi South 10.4 mph - N/A   Clear
3:35 AM 44.6 °F 39.2 °F 30.2 °F 57% 30.07 in 10.0 mi South 10.4 mph - N/A   Clear
3:55 AM 42.8 °F 37.0 °F 30.2 °F 61% 30.07 in 10.0 mi South 10.4 mph - N/A   Clear
4:15 AM 42.8 °F 37.5 °F 30.2 °F 61% 30.07 in 10.0 mi South 9.2 mph - N/A   Clear
4:35 AM 42.8 °F 38.0 °F 30.2 °F 61% 30.07 in 10.0 mi South 8.1 mph - N/A   Clear
4:55 AM 42.8 °F 38.0 °F 30.2 °F 61% 30.06 in 10.0 mi South 8.1 mph - N/A   Clear
5:15 AM 42.8 °F 38.0 °F 30.2 °F 61% 30.07 in 10.0 mi South 8.1 mph - N/A   Clear
5:35 AM 44.6 °F 40.2 °F 28.4 °F 53% 30.06 in 10.0 mi South 8.1 mph - N/A   Clear
5:55 AM 44.6 °F 40.2 °F 28.4 °F 53% 30.06 in 10.0 mi South 8.1 mph - N/A   Clear
6:15 AM 44.6 °F 40.2 °F 28.4 °F 53% 30.06 in 10.0 mi South 8.1 mph - N/A   Clear
6:35 AM 44.6 °F 39.2 °F 28.4 °F 53% 30.06 in 10.0 mi SSW 10.4 mph - N/A   Clear
6:55 AM 44.6 °F 39.2 °F 28.4 °F 53% 30.06 in 10.0 mi SSW 10.4 mph - N/A   Clear
7:15 AM 44.6 °F 39.7 °F 28.4 °F 53% 30.06 in 10.0 mi SSW 9.2 mph - N/A   Clear
7:35 AM 44.6 °F 39.7 °F 28.4 °F 53% 30.06 in 10.0 mi SSW 9.2 mph - N/A   Clear
7:55 AM 44.6 °F 40.2 °F 28.4 °F 53% 30.06 in 10.0 mi SSW 8.1 mph - N/A   Clear
8:15 AM 46.4 °F 42.4 °F 28.4 °F 50% 30.06 in 10.0 mi SSW 8.1 mph - N/A   Clear
8:35 AM 48.2 °F - 28.4 °F 46% 30.07 in 10.0 mi SSW 9.2 mph - N/A   Clear
8:55 AM 50.0 °F - 28.4 °F 43% 30.07 in 10.0 mi SSW 8.1 mph - N/A   Clear
9:15 AM 51.8 °F - 30.2 °F 44% 30.07 in 10.0 mi SSW 12.7 mph - N/A   Clear
9:35 AM 51.8 °F - 30.2 °F 44% 30.07 in 10.0 mi SSW 10.4 mph - N/A   Clear
9:55 AM 55.4 °F - 30.2 °F 38% 30.06 in 10.0 mi SSW 13.8 mph 17.3 mph N/A   Clear
10:15 AM 59.0 °F - 28.4 °F 31% 30.06 in 10.0 mi SW 16.1 mph 20.7 mph N/A   Clear
10:35 AM 60.8 °F - 28.4 °F 29% 30.05 in 10.0 mi SSW 15.0 mph 20.7 mph N/A   Clear
10:55 AM 60.8 °F - 28.4 °F 29% 30.05 in 10.0 mi SW 12.7 mph - N/A   Clear
11:15 AM 62.6 °F - 28.4 °F 27% 30.05 in 10.0 mi SW 13.8 mph 18.4 mph N/A   Clear
11:35 AM 62.6 °F - 28.4 °F 27% 30.04 in 10.0 mi SW 16.1 mph 21.9 mph N/A   Clear
11:55 AM 64.4 °F - 28.4 °F 26% 30.02 in 10.0 mi SW 13.8 mph 20.7 mph N/A   Clear
12:15 PM 66.2 °F - 28.4 °F 24% 30.01 in 10.0 mi SSW 16.1 mph 19.6 mph N/A   Clear
12:55 PM 68.0 °F - 26.6 °F 21% 29.98 in 10.0 mi South 18.4 mph 24.2 mph N/A   Clear
1:15 PM 68.0 °F - 26.6 °F 21% 29.97 in 10.0 mi SSW 19.6 mph 27.6 mph N/A   Clear
1:35 PM 69.8 °F - 24.8 °F 18% 29.95 in 10.0 mi South 20.7 mph 28.8 mph N/A   Clear
1:55 PM 69.8 °F - 23.0 °F 17% 29.94 in 10.0 mi South 21.9 mph 27.6 mph N/A   Clear
2:15 PM 69.8 °F - 23.0 °F 17% 29.93 in 10.0 mi South 17.3 mph 25.3 mph N/A   Clear
2:35 PM 69.8 °F - 23.0 °F 17% 29.92 in 10.0 mi SSW 19.6 mph 27.6 mph N/A   Clear
2:55 PM 69.8 °F - 23.0 °F 17% 29.91 in 10.0 mi South 19.6 mph 27.6 mph N/A   Clear
3:15 PM 69.8 °F - 23.0 °F 17% 29.90 in 10.0 mi South 21.9 mph 27.6 mph N/A   Clear
3:35 PM 69.8 °F - 23.0 °F 17% 29.89 in 10.0 mi South 16.1 mph 23.0 mph N/A   Clear
3:55 PM 69.8 °F - 21.2 °F 16% 29.88 in 10.0 mi South 20.7 mph 26.5 mph N/A   Clear
4:15 PM 69.8 °F - 21.2 °F 16% 29.88 in 10.0 mi South 20.7 mph 28.8 mph N/A   Clear
4:35 PM 69.8 °F - 21.2 °F 16% 29.87 in 10.0 mi South 20.7 mph 26.5 mph N/A   Clear
4:55 PM 69.8 °F - 21.2 °F 16% 29.87 in 10.0 mi South 20.7 mph 29.9 mph N/A   Clear
5:15 PM 68.0 °F - 21.2 °F 17% 29.87 in 10.0 mi South 17.3 mph 25.3 mph N/A   Clear
5:35 PM 68.0 °F - 23.0 °F 18% 29.86 in 10.0 mi South 17.3 mph 23.0 mph N/A   Clear
5:55 PM 66.2 °F - 23.0 °F 19% 29.87 in 10.0 mi South 13.8 mph 21.9 mph N/A   Clear
6:15 PM 64.4 °F - 26.6 °F 24% 29.87 in 10.0 mi South 9.2 mph 19.6 mph N/A   Clear
6:35 PM 62.6 °F - 28.4 °F 27% 29.87 in 10.0 mi South 12.7 mph 20.7 mph N/A   Clear
6:55 PM 62.6 °F - 28.4 °F 27% 29.87 in 10.0 mi South 11.5 mph 18.4 mph N/A   Clear
7:15 PM 60.8 °F - 30.2 °F 31% 29.87 in 10.0 mi South 16.1 mph 26.5 mph N/A   Clear
7:35 PM 60.8 °F - 32.0 °F 34% 29.87 in 10.0 mi South 17.3 mph 23.0 mph N/A   Clear
7:55 PM 60.8 °F - 32.0 °F 34% 29.87 in 10.0 mi South 17.3 mph 26.5 mph N/A   Clear
8:15 PM 59.0 °F - 32.0 °F 36% 29.87 in 10.0 mi South 18.4 mph 26.5 mph N/A   Clear
8:35 PM 59.0 °F - 32.0 °F 36% 29.87 in 10.0 mi South 19.6 mph 24.2 mph N/A   Clear
8:55 PM 59.0 °F - 32.0 °F 36% 29.87 in 10.0 mi South 17.3 mph 25.3 mph N/A   Clear
9:15 PM 59.0 °F - 32.0 °F 36% 29.87 in 10.0 mi South 19.6 mph 26.5 mph N/A   Clear
9:35 PM 59.0 °F - 32.0 °F 36% 29.87 in 10.0 mi South 18.4 mph 28.8 mph N/A   Clear
9:55 PM 59.0 °F - 32.0 °F 36% 29.87 in 10.0 mi South 21.9 mph 27.6 mph N/A   Clear
10:15 PM 57.2 °F - 33.8 °F 41% 29.87 in 10.0 mi South 20.7 mph 28.8 mph N/A   Clear
10:35 PM 57.2 °F - 35.6 °F 44% 29.87 in 10.0 mi South 20.7 mph 28.8 mph N/A   Clear
10:55 PM 55.4 °F - 37.4 °F 51% 29.87 in 10.0 mi South 19.6 mph 27.6 mph N/A   Clear
11:15 PM 55.4 °F - 39.2 °F 54% 29.87 in 10.0 mi South 19.6 mph 31.1 mph N/A   Clear
11:35 PM 55.4 °F - 41.0 °F 58% 29.86 in 10.0 mi South 19.6 mph 27.6 mph N/A   Clear
11:55 PM 55.4 °F - 41.0 °F 58% 29.85 in 10.0 mi South 20.7 mph 28.8 mph N/A   Clear